Вернуться в каталог

COSMOS 711

АктивенВоенныеLEO
NORAD 7678·PAYLOAD·🇷🇺 Russia

Запущен Feb 28, 1975 с Plesetsk Cosmodrome

Loading…

Ближайшие Пролёты (ближайшие 24 часа)

TLE

СвежийSource: Space-Track

Эпоха: Sep 14, 2026, 13:46 UTC

1 07678U 75016A   26257.57396144 -.00000006  00000-0  66776-4 0  9991
2 07678  74.0032 301.2857 0019229 148.7244   5.6584 12.47086392346479

Отслеживайте COSMOS 711 в реальном времени с AllMySat

Download on the App Store